| time (UTC) | temp F | wind direction | speed MPH | gust MPH | rain 1hr in | rain 24hr in | rain mn in | humidity % | barometer mb |
| 20260902200150 | 41 | 227 | 1.0 | 4.0 | 0.00 | 0.01 | 0.01 | 91 | 1014.8 |
| 20260902194503 | 39 | 232 | 1.0 | 4.0 | 0.00 | 0.01 | 0.01 | 93 | 1014.6 |
| 20260902193056 | 38 | 266 | 2.0 | 6.0 | 0.01 | 0.01 | 0.01 | 93 | 1014.5 |
| 20260902191550 | 37 | 229 | 2.0 | 5.0 | 0.01 | 0.01 | 0.01 | 93 | 1014.3 |
| 20260902190144 | 37 | 80 | 0.0 | 3.0 | 0.01 | 0.01 | 0.01 | 92 | 1013.5 |
| 20260902184501 | 38 | 210 | 0.0 | 2.0 | 0.00 | 0.00 | 0.00 | 88 | 1013.9 |
| 20260902183052 | 39 | 250 | 0.0 | 0.0 | 0.00 | 0.00 | 0.00 | 87 | 1013.5 |
| 20260902181549 | 38 | 251 | 0.0 | 2.0 | 0.00 | 0.00 | 0.00 | 86 | 1013.2 |
| 20260902180005 | 37 | 253 | 0.0 | 1.0 | 0.00 | 0.00 | 0.00 | 88 | 1012.8 |
| 20260902174556 | 37 | 241 | 1.0 | 2.0 | 0.00 | 0.00 | 0.00 | 89 | 1012.6 |
| 20260902173050 | 36 | 269 | 0.0 | 2.0 | 0.00 | 0.00 | 0.00 | 91 | 1012.4 |
| 20260902171501 | 35 | 266 | 0.0 | 1.0 | 0.00 | 0.00 | 0.00 | 90 | 1012.2 |
| 20260902170054 | 35 | 113 | 0.0 | 2.0 | 0.00 | 0.00 | 0.00 | 90 | 1011.9 |
| 20260902164553 | 34 | 227 | 0.0 | 0.0 | 0.00 | 0.00 | 0.00 | 93 | 1011.9 |
| 20260902163059 | 33 | 116 | 0.0 | 0.0 | 0.00 | 0.00 | 0.00 | 94 | 1011.6 |
| 20260902161551 | 31 | 245 | 0.0 | 0.0 | 0.00 | 0.00 | 0.00 | 96 | 1011.5 |
| 20260902160050 | 29 | 245 | 0.0 | 0.0 | 0.00 | 0.00 | 0.00 | 95 | 1011.4 |
| 20260902154604 | 28 | 245 | 0.0 | 0.0 | 0.00 | 0.00 | 0.00 | 95 | 1011.3 |
| 20260902153056 | 28 | 246 | 0.0 | 0.0 | 0.00 | 0.00 | 0.00 | 95 | 1010.9 |
| 20260902151549 | 27 | 245 | 0.0 | 0.0 | 0.00 | 0.00 | 0.00 | 96 | 1011.0 |
| 20260902150001 | 27 | 245 | 0.0 | 0.0 | 0.00 | 0.00 | 0.00 | 96 | 1010.8 |
| 20260902144516 | 27 | 245 | 0.0 | 0.0 | 0.00 | 0.00 | 0.00 | 96 | 1010.6 |
| 20260902143052 | 27 | 245 | 0.0 | 0.0 | 0.00 | 0.00 | 0.00 | 96 | 1010.6 |
| 20260902141545 | 26 | 245 | 0.0 | 0.0 | 0.00 | 0.00 | 0.00 | 95 | 1010.4 |
| 20260902140043 | 26 | 245 | 0.0 | 0.0 | 0.00 | 0.00 | 0.00 | 95 | 1010.4 |
| 20260902134554 | 26 | 245 | 0.0 | 0.0 | 0.00 | 0.00 | 0.00 | 96 | 1010.2 |
| 20260902133056 | 26 | 245 | 0.0 | 0.0 | 0.00 | 0.00 | 0.00 | 96 | 1010.2 |
| 20260902131504 | 25 | 245 | 0.0 | 0.0 | 0.00 | 0.00 | 0.00 | 94 | 1010.1 |
| 20260902130054 | 25 | 245 | 0.0 | 0.0 | 0.00 | 0.00 | 0.00 | 95 | 1009.9 |
| 20260902124551 | 26 | 245 | 0.0 | 0.0 | 0.00 | 0.00 | 0.00 | 95 | 1009.7 |
| 20260902123105 | 26 | 245 | 0.0 | 0.0 | 0.00 | 0.00 | 0.00 | 95 | 1009.6 |
| 20260902121605 | 27 | 245 | 0.0 | 0.0 | 0.00 | 0.00 | 0.00 | 95 | 1009.6 |
| 20260902120047 | 28 | 245 | 0.0 | 0.0 | 0.00 | 0.00 | 0.00 | 95 | 1009.6 |
| 20260902114502 | 29 | 245 | 0.0 | 0.0 | 0.00 | 0.00 | 0.00 | 96 | 1009.5 |
| 20260902113059 | 28 | 245 | 0.0 | 0.0 | 0.00 | 0.00 | 0.00 | 94 | 1009.6 |
| 20260902111549 | 28 | 245 | 0.0 | 0.0 | 0.00 | 0.00 | 0.00 | 95 | 1009.7 |
| 20260902110001 | 29 | 239 | 0.0 | 0.0 | 0.00 | 0.00 | 0.00 | 96 | 1009.6 |
| 20260902104608 | 28 | 239 | 0.0 | 0.0 | 0.00 | 0.00 | 0.00 | 93 | 1009.6 |
| 20260902103051 | 28 | 239 | 0.0 | 0.0 | 0.00 | 0.00 | 0.00 | 94 | 1009.4 |
| 20260902101501 | 29 | 239 | 0.0 | 0.0 | 0.00 | 0.00 | 0.00 | 94 | 1009.5 |
| 20260902100049 | 29 | 239 | 0.0 | 0.0 | 0.00 | 0.00 | 0.00 | 92 | 1009.3 |
| 20260902094550 | 29 | 239 | 0.0 | 0.0 | 0.00 | 0.00 | 0.00 | 90 | 1009.5 |
| 20260902093056 | 29 | 239 | 0.0 | 0.0 | 0.00 | 0.00 | 0.00 | 91 | 1009.3 |
| 20260902091600 | 31 | 239 | 0.0 | 0.0 | 0.00 | 0.00 | 0.00 | 93 | 1009.2 |
| 20260902090044 | 31 | 239 | 0.0 | 0.0 | 0.00 | 0.00 | 0.00 | 90 | 1009.3 |
| 20260902084606 | 32 | 239 | 0.0 | 0.0 | 0.00 | 0.00 | 0.00 | 92 | 1009.3 |
| 20260902083111 | 30 | 239 | 0.0 | 0.0 | 0.00 | 0.00 | 0.00 | 93 | 1009.4 |
| 20260902081546 | 31 | 238 | 0.0 | 0.0 | 0.00 | 0.00 | 0.00 | 85 | 1009.3 |
| 20260902080057 | 31 | 238 | 0.0 | 0.0 | 0.00 | 0.00 | 0.00 | 86 | 1009.4 |
| 20260902074554 | 31 | 252 | 0.0 | 0.0 | 0.00 | 0.00 | 0.00 | 82 | 1009.5 |
| 20260902073046 | 33 | 40 | 0.0 | 0.0 | 0.00 | 0.00 | 0.00 | 82 | 1009.3 |
| 20260902071557 | 34 | 40 | 0.0 | 0.0 | 0.00 | 0.00 | 0.00 | 86 | 1009.3 |
| 20260902070052 | 34 | 40 | 0.0 | 0.0 | 0.00 | 0.00 | 0.00 | 86 | 1009.1 |
| 20260902064508 | 34 | 40 | 0.0 | 0.0 | 0.00 | 0.00 | 0.00 | 81 | 1009.0 |
| 20260902063056 | 35 | 40 | 0.0 | 0.0 | 0.00 | 0.00 | 0.00 | 79 | 1009.0 |
| 20260902061555 | 38 | 40 | 0.0 | 0.0 | 0.00 | 0.00 | 0.00 | 76 | 1008.7 |
| 20260902060039 | 39 | 40 | 0.0 | 0.0 | 0.00 | 0.00 | 0.00 | 79 | 1008.8 |
| 20260902054607 | 38 | 40 | 0.0 | 0.0 | 0.00 | 0.00 | 0.00 | 77 | 1008.8 |
| 20260902053100 | 41 | 40 | 0.0 | 0.0 | 0.00 | 0.00 | 0.00 | 74 | 1008.7 |
| 20260902051544 | 42 | 40 | 0.0 | 0.0 | 0.00 | 0.00 | 0.00 | 72 | 1008.7 |
| 20260902050108 | 44 | 40 | 0.0 | 0.0 | 0.00 | 0.00 | 0.00 | 70 | 1008.8 |
| 20260902044553 | 48 | 40 | 0.0 | 0.0 | 0.00 | 0.00 | 0.00 | 65 | 1008.7 |
| 20260902043052 | 51 | 40 | 0.0 | 0.0 | 0.00 | 0.00 | 0.00 | 60 | 1008.6 |
| 20260902041601 | 53 | 40 | 0.0 | 0.0 | 0.00 | 0.00 | 0.00 | 56 | 1008.6 |
| 20260902040053 | 54 | 40 | 0.0 | 0.0 | 0.00 | 0.00 | 0.00 | 55 | 1008.6 |
| 20260902034547 | 56 | 103 | 0.0 | 0.0 | 0.00 | 0.00 | 0.00 | 53 | 1008.6 |
| 20260902033044 | 57 | 103 | 0.0 | 0.0 | 0.00 | 0.00 | 0.00 | 53 | 1008.5 |
| 20260902031553 | 58 | 116 | 0.0 | 1.0 | 0.00 | 0.00 | 0.00 | 48 | 1008.5 |
| 20260902030044 | 58 | 320 | 0.0 | 2.0 | 0.00 | 0.00 | 0.00 | 46 | 1008.6 |
| 20260902024502 | 58 | 284 | 0.0 | 2.0 | 0.00 | 0.00 | 0.00 | 49 | 1008.7 |
| 20260902023100 | 57 | 5 | 0.0 | 0.0 | 0.00 | 0.00 | 0.00 | 53 | 1008.6 |
| 20260902021550 | 56 | 5 | 0.0 | 2.0 | 0.00 | 0.00 | 0.00 | 53 | 1008.6 |
| 20260902020059 | 56 | 2 | 0.0 | 2.0 | 0.00 | 0.00 | 0.00 | 52 | 1008.7 |
| 20260902014557 | 57 | 43 | 0.0 | 3.0 | 0.00 | 0.00 | 0.00 | 50 | 1008.6 |
| 20260902013047 | 58 | 122 | 2.0 | 7.0 | 0.00 | 0.00 | 0.00 | 47 | 1008.5 |
| 20260902011502 | 57 | 356 | 0.0 | 5.0 | 0.00 | 0.00 | 0.00 | 49 | 1008.6 |
| 20260902010053 | 57 | 53 | 2.0 | 5.0 | 0.00 | 0.00 | 0.00 | 49 | 1008.6 |
| 20260902004550 | 57 | 60 | 2.0 | 4.0 | 0.00 | 0.00 | 0.00 | 49 | 1008.7 |
| 20260902003108 | 57 | 8 | 2.0 | 6.0 | 0.00 | 0.00 | 0.00 | 50 | 1008.7 |
| 20260902001557 | 57 | 347 | 1.0 | 8.0 | 0.00 | 0.00 | 0.00 | 49 | 1008.7 |
| 20260902000050 | 57 | 111 | 2.0 | 7.0 | 0.00 | 0.00 | 0.00 | 49 | 1008.7 |
| 20260901234503 | 58 | 39 | 2.0 | 8.0 | 0.00 | 0.00 | 0.00 | 48 | 1008.7 |
| 20260901233054 | 59 | 94 | 2.0 | 7.0 | 0.00 | 0.00 | 0.00 | 46 | 1008.6 |
| 20260901231608 | 58 | 335 | 4.0 | 9.0 | 0.00 | 0.00 | 0.00 | 49 | 1008.8 |
| 20260901230001 | 57 | 347 | 3.0 | 8.0 | 0.00 | 0.00 | 0.00 | 51 | 1009.0 |
| 20260901224559 | 56 | 2 | 2.0 | 10.0 | 0.00 | 0.00 | 0.00 | 52 | 1009.1 |
| 20260901223050 | 57 | 34 | 4.0 | 9.0 | 0.00 | 0.00 | 0.00 | 51 | 1008.9 |
| 20260901221608 | 58 | 51 | 4.0 | 8.0 | 0.00 | 0.00 | 0.00 | 46 | 1009.0 |
| 20260901220121 | 58 | 26 | 4.0 | 14.0 | 0.00 | 0.00 | 0.00 | 47 | 1009.1 |
| 20260901214554 | 57 | 145 | 4.0 | 9.0 | 0.00 | 0.00 | 0.00 | 50 | 1009.2 |
| 20260901213100 | 57 | 39 | 6.0 | 17.0 | 0.00 | 0.00 | 0.00 | 50 | 1009.4 |
| 20260901211501 | 57 | 49 | 3.0 | 12.0 | 0.00 | 0.00 | 0.00 | 52 | 1009.3 |
| 20260901210051 | 58 | 349 | 4.0 | 11.0 | 0.00 | 0.00 | 0.00 | 54 | 1009.4 |
| 20260901204513 | 56 | 28 | 6.0 | 16.0 | 0.00 | 0.00 | 0.00 | 56 | 1009.5 |
| 20260901203102 | 56 | 32 | 5.0 | 13.0 | 0.00 | 0.00 | 0.00 | 55 | 1009.7 |
| 20260901201557 | 55 | 29 | 6.0 | 14.0 | 0.00 | 0.00 | 0.00 | 54 | 1009.6 |